Location: Unspecified
(51.5147°N, 7.4673°E)
Time: 08:23:10
(UTC+01:00)

A-11 Canister half - Pass Details

Date: 17 February 2026
Orbit: 1512 x 1687 km, 47.2° (Epoch: 8 March)

Event Time Altitude Azimuth Distance (km) Brightness Sun altitude
Rises 02:21:13 0° 279° (W) 4,900 - -45.9°
Reaches altitude 10° 02:24:28 10° 276° (W) 3,892 - -45.6°
Maximum altitude 02:34:04 58° 201° (SSW) 1,831 - -44.7°
Exits shadow 02:42:38 13° 127° (SE) 3,545 10.9 -43.8°
Drops below altitude 10° 02:43:19 10° 126° (SE) 3,750 11.0 -43.7°
Sets 02:46:23 0° 122° (ESE) 4,711 11.7 -43.4°
